contact:dominique.lefevre@mio.osupytheas.fr, maurice.libes@osupytheas.fr, didier.mallarino@osupytheas.fr
Project:EMSO http://www.emso-fr.org/EMSO-France
Depth: 2436.0 m
Title:EMSO Ligure Ouest : Data MII capteur MICROCAT
DateTime_Computer,Latitude,Longitude,Temperature,Conductivity,Pressure,DateTime_Instrument
DateTime_Computer,Latitude,Longitude,degC,S m-1,dbar,DateTime_Instrument
2021-05-28T00:02:14Z,42.805,6.029,13.2996,4.59996,2470.31,2021-5-28T02:03:26Z
2021-05-28T00:05:17Z,42.805,6.029,13.2994,4.59995,2470.297,2021-5-28T02:06:29Z
2021-05-28T00:08:21Z,42.805,6.029,13.2983,4.59994,2470.273,2021-5-28T02:09:33Z
2021-05-28T00:11:24Z,42.805,6.029,13.2987,4.59997,2470.273,2021-5-28T02:12:36Z
2021-05-28T00:14:27Z,42.805,6.029,13.2993,4.60001,2470.297,2021-5-28T02:15:39Z
2021-05-28T00:17:30Z,42.805,6.029,13.2993,4.60006,2470.297,2021-5-28T02:18:42Z
2021-05-28T00:20:33Z,42.805,6.029,13.2990,4.59993,2470.287,2021-5-28T02:21:45Z
2021-05-28T00:23:36Z,42.805,6.029,13.2991,4.59993,2470.273,2021-5-28T02:24:48Z
2021-05-28T00:26:39Z,42.805,6.029,13.2992,4.59996,2470.273,2021-5-28T02:27:51Z
2021-05-28T00:29:42Z,42.805,6.029,13.2987,4.59993,2470.264,2021-5-28T02:30:54Z
2021-05-28T00:32:46Z,42.805,6.029,13.2988,4.59992,2470.273,2021-5-28T02:33:58Z
2021-05-28T00:35:49Z,42.805,6.029,13.2987,4.59993,2470.264,2021-5-28T02:37:01Z
2021-05-28T00:38:52Z,42.805,6.029,13.2996,4.59999,2470.25,2021-5-28T02:40:04Z
2021-05-28T00:41:55Z,42.805,6.029,13.2990,4.59996,2470.287,2021-5-28T02:43:07Z
2021-05-28T00:44:58Z,42.805,6.029,13.3000,4.60009,2470.264,2021-5-28T02:46:10Z
2021-05-28T00:48:01Z,42.805,6.029,13.2998,4.60004,2470.25,2021-5-28T02:49:13Z
2021-05-28T00:51:04Z,42.805,6.029,13.2988,4.60000,2470.25,2021-5-28T02:52:16Z
2021-05-28T00:54:07Z,42.805,6.029,13.2985,4.59994,2470.264,2021-5-28T02:55:19Z
2021-05-28T00:57:10Z,42.805,6.029,13.2988,4.59994,2470.25,2021-5-28T02:58:23Z
2021-05-28T01:00:14Z,42.805,6.029,13.2991,4.59994,2470.25,2021-5-28T03:01:26Z
2021-05-28T01:03:17Z,42.805,6.029,13.2991,4.59994,2470.236,2021-5-28T03:04:29Z
2021-05-28T01:06:20Z,42.805,6.029,13.2991,4.59995,2470.227,2021-5-28T03:07:32Z
2021-05-28T01:09:23Z,42.805,6.029,13.2986,4.59992,2470.227,2021-5-28T03:10:35Z
2021-05-28T01:12:26Z,42.805,6.029,13.2993,4.59992,2470.25,2021-5-28T03:13:38Z
2021-05-28T01:15:29Z,42.805,6.029,13.2991,4.59995,2470.227,2021-5-28T03:16:41Z
2021-05-28T01:18:32Z,42.805,6.029,13.2986,4.59993,2470.24,2021-5-28T03:19:44Z
2021-05-28T01:21:35Z,42.805,6.029,13.2990,4.59993,2470.264,2021-5-28T03:22:48Z
2021-05-28T01:24:39Z,42.805,6.029,13.2990,4.59992,2470.24,2021-5-28T03:25:51Z
2021-05-28T01:27:42Z,42.805,6.029,13.2988,4.59993,2470.24,2021-5-28T03:28:54Z
2021-05-28T01:30:45Z,42.805,6.029,13.2988,4.59992,2470.227,2021-5-28T03:31:57Z
2021-05-28T01:33:48Z,42.805,6.029,13.2984,4.59993,2470.18,2021-5-28T03:35:00Z
2021-05-28T01:36:51Z,42.805,6.029,13.2988,4.59996,2470.227,2021-5-28T03:38:03Z
2021-05-28T01:39:54Z,42.805,6.029,13.2991,4.59996,2470.217,2021-5-28T03:41:06Z
2021-05-28T01:42:57Z,42.805,6.029,13.2986,4.59993,2470.203,2021-5-28T03:44:09Z
2021-05-28T01:46:00Z,42.805,6.029,13.2991,4.59992,2470.227,2021-5-28T03:47:12Z
2021-05-28T01:49:04Z,42.805,6.029,13.2998,4.60004,2470.227,2021-5-28T03:50:16Z
2021-05-28T01:52:07Z,42.805,6.029,13.2991,4.59996,2470.203,2021-5-28T03:53:19Z
2021-05-28T01:55:10Z,42.805,6.029,13.2992,4.60003,2470.227,2021-5-28T03:56:22Z
2021-05-28T01:58:13Z,42.805,6.029,13.2993,4.59994,2470.203,2021-5-28T03:59:25Z
2021-05-28T02:01:16Z,42.805,6.029,13.2988,4.59996,2470.227,2021-5-28T04:02:28Z
2021-05-28T02:04:19Z,42.805,6.029,13.2987,4.59993,2470.203,2021-5-28T04:05:31Z
2021-05-28T02:07:22Z,42.805,6.029,13.2988,4.59994,2470.203,2021-5-28T04:08:34Z
2021-05-28T02:10:25Z,42.805,6.029,13.2994,4.60006,2470.194,2021-5-28T04:11:37Z
2021-05-28T02:13:29Z,42.805,6.029,13.2995,4.59999,2470.18,2021-5-28T04:14:41Z
2021-05-28T02:16:32Z,42.805,6.029,13.2998,4.59997,2470.217,2021-5-28T04:17:44Z
2021-05-28T02:19:35Z,42.805,6.029,13.2988,4.59994,2470.24,2021-5-28T04:20:47Z
2021-05-28T02:22:38Z,42.805,6.029,13.2991,4.59991,2470.217,2021-5-28T04:23:50Z
2021-05-28T02:25:41Z,42.805,6.029,13.2986,4.59992,2470.217,2021-5-28T04:26:53Z
2021-05-28T02:28:44Z,42.805,6.029,13.2991,4.60001,2470.18,2021-5-28T04:29:56Z
2021-05-28T02:31:47Z,42.805,6.029,13.2990,4.59995,2470.18,2021-5-28T04:32:59Z
2021-05-28T02:34:50Z,42.805,6.029,13.2990,4.59993,2470.171,2021-5-28T04:36:02Z
2021-05-28T02:37:54Z,42.805,6.029,13.2997,4.60004,2470.217,2021-5-28T04:39:06Z
2021-05-28T02:40:57Z,42.805,6.029,13.2991,4.59994,2470.203,2021-5-28T04:42:09Z
2021-05-28T02:44:00Z,42.805,6.029,13.2993,4.59993,2470.194,2021-5-28T04:45:12Z
2021-05-28T02:47:03Z,42.805,6.029,13.2988,4.59991,2470.203,2021-5-28T04:48:15Z
2021-05-28T02:50:06Z,42.805,6.029,13.2992,4.59992,2470.203,2021-5-28T04:51:18Z
2021-05-28T02:53:09Z,42.805,6.029,13.2992,4.60001,2470.217,2021-5-28T04:54:21Z
2021-05-28T02:56:12Z,42.805,6.029,13.2991,4.59994,2470.227,2021-5-28T04:57:24Z
2021-05-28T02:59:15Z,42.805,6.029,13.2990,4.59996,2470.18,2021-5-28T05:00:27Z
2021-05-28T03:02:19Z,42.805,6.029,13.2984,4.59994,2470.18,2021-5-28T05:03:31Z
2021-05-28T03:05:22Z,42.805,6.029,13.2986,4.59994,2470.18,2021-5-28T05:06:34Z
2021-05-28T03:08:25Z,42.805,6.029,13.2990,4.59998,2470.203,2021-5-28T05:09:37Z
2021-05-28T03:11:28Z,42.805,6.029,13.2995,4.59996,2470.194,2021-5-28T05:12:40Z
2021-05-28T03:14:31Z,42.805,6.029,13.2988,4.59994,2470.203,2021-5-28T05:15:43Z
2021-05-28T03:17:34Z,42.805,6.029,13.2995,4.59994,2470.203,2021-5-28T05:18:46Z
2021-05-28T03:20:37Z,42.805,6.029,13.2990,4.60009,2470.203,2021-5-28T05:21:49Z
2021-05-28T03:23:40Z,42.805,6.029,13.2997,4.59998,2470.203,2021-5-28T05:24:52Z
2021-05-28T03:26:44Z,42.805,6.029,13.2987,4.59991,2470.194,2021-5-28T05:27:56Z
2021-05-28T03:29:47Z,42.805,6.029,13.2991,4.59992,2470.194,2021-5-28T05:30:59Z
2021-05-28T03:32:50Z,42.805,6.029,13.2986,4.59993,2470.217,2021-5-28T05:34:02Z
2021-05-28T03:35:53Z,42.805,6.029,13.2988,4.59993,2470.18,2021-5-28T05:37:05Z
2021-05-28T03:38:56Z,42.805,6.029,13.2986,4.59991,2470.18,2021-5-28T05:40:08Z
2021-05-28T03:41:59Z,42.805,6.029,13.2996,4.59995,2470.18,2021-5-28T05:43:11Z
2021-05-28T03:45:02Z,42.805,6.029,13.2993,4.59992,2470.18,2021-5-28T05:46:14Z
2021-05-28T03:48:05Z,42.805,6.029,13.2987,4.59994,2470.156,2021-5-28T05:49:17Z
2021-05-28T03:51:09Z,42.805,6.029,13.2995,4.60002,2470.156,2021-5-28T05:52:21Z
2021-05-28T03:54:12Z,42.805,6.029,13.2990,4.59994,2470.156,2021-5-28T05:55:24Z
2021-05-28T03:57:15Z,42.805,6.029,13.2987,4.59991,2470.217,2021-5-28T05:58:27Z
2021-05-28T04:00:18Z,42.805,6.029,13.2986,4.59992,2470.194,2021-5-28T06:01:30Z
2021-05-28T04:03:21Z,42.805,6.029,13.2988,4.59991,2470.203,2021-5-28T06:04:33Z
2021-05-28T04:06:24Z,42.805,6.029,13.2996,4.60009,2470.18,2021-5-28T06:07:36Z
2021-05-28T04:09:27Z,42.805,6.029,13.2990,4.59994,2470.203,2021-5-28T06:10:39Z
2021-05-28T04:12:30Z,42.805,6.029,13.2998,4.60005,2470.24,2021-5-28T06:13:42Z
2021-05-28T04:15:33Z,42.805,6.029,13.2992,4.60005,2470.217,2021-5-28T06:16:46Z
2021-05-28T04:18:37Z,42.805,6.029,13.2996,4.59994,2470.227,2021-5-28T06:19:49Z
2021-05-28T04:21:40Z,42.805,6.029,13.2993,4.59993,2470.227,2021-5-28T06:22:52Z
2021-05-28T04:24:43Z,42.805,6.029,13.2985,4.59992,2470.203,2021-5-28T06:25:55Z
2021-05-28T04:27:46Z,42.805,6.029,13.2986,4.59995,2470.203,2021-5-28T06:28:58Z
2021-05-28T04:30:49Z,42.805,6.029,13.2999,4.60009,2470.217,2021-5-28T06:32:01Z
2021-05-28T04:33:52Z,42.805,6.029,13.2990,4.59997,2470.203,2021-5-28T06:35:04Z
2021-05-28T04:36:55Z,42.805,6.029,13.3004,4.60009,2470.227,2021-5-28T06:38:07Z
2021-05-28T04:39:59Z,42.805,6.029,13.3005,4.59996,2470.203,2021-5-28T06:41:11Z
2021-05-28T04:43:02Z,42.805,6.029,13.2990,4.59994,2470.24,2021-5-28T06:44:14Z
2021-05-28T04:46:05Z,42.805,6.029,13.2995,4.60005,2470.203,2021-5-28T06:47:17Z
2021-05-28T04:49:08Z,42.805,6.029,13.2989,4.59993,2470.24,2021-5-28T06:50:20Z
2021-05-28T04:52:11Z,42.805,6.029,13.2988,4.59993,2470.25,2021-5-28T06:53:23Z
2021-05-28T04:55:14Z,42.805,6.029,13.2989,4.59995,2470.227,2021-5-28T06:56:26Z
2021-05-28T04:58:17Z,42.805,6.029,13.2990,4.59993,2470.227,2021-5-28T06:59:29Z
2021-05-28T05:01:20Z,42.805,6.029,13.2994,4.59995,2470.24,2021-5-28T07:02:32Z
2021-05-28T05:04:23Z,42.805,6.029,13.3001,4.60000,2470.227,2021-5-28T07:05:36Z
2021-05-28T05:07:27Z,42.805,6.029,13.2991,4.59992,2470.273,2021-5-28T07:08:39Z
2021-05-28T05:10:30Z,42.805,6.029,13.2996,4.59998,2470.25,2021-5-28T07:11:42Z
2021-05-28T05:13:33Z,42.805,6.029,13.2996,4.59997,2470.25,2021-5-28T07:14:45Z
2021-05-28T05:16:36Z,42.805,6.029,13.3000,4.60001,2470.25,2021-5-28T07:17:48Z
2021-05-28T05:19:39Z,42.805,6.029,13.2991,4.59998,2470.25,2021-5-28T07:20:51Z
2021-05-28T05:22:42Z,42.805,6.029,13.2991,4.59997,2470.25,2021-5-28T07:23:54Z
2021-05-28T05:25:45Z,42.805,6.029,13.2991,4.59995,2470.287,2021-5-28T07:26:57Z
2021-05-28T05:28:48Z,42.805,6.029,13.2988,4.59996,2470.273,2021-5-28T07:30:01Z
2021-05-28T05:31:52Z,42.805,6.029,13.3004,4.60009,2470.25,2021-5-28T07:33:04Z
2021-05-28T05:34:55Z,42.805,6.029,13.3016,4.60003,2470.273,2021-5-28T07:36:07Z
2021-05-28T05:37:58Z,42.805,6.029,13.2997,4.59996,2470.31,2021-5-28T07:39:10Z
2021-05-28T05:41:01Z,42.805,6.029,13.2988,4.59996,2470.287,2021-5-28T07:42:13Z
2021-05-28T05:44:04Z,42.805,6.029,13.2986,4.60001,2470.297,2021-5-28T07:45:16Z
2021-05-28T05:47:07Z,42.805,6.029,13.2991,4.59994,2470.31,2021-5-28T07:48:19Z
2021-05-28T05:50:10Z,42.805,6.029,13.2991,4.59994,2470.25,2021-5-28T07:51:22Z
2021-05-28T05:53:13Z,42.805,6.029,13.2990,4.59998,2470.273,2021-5-28T07:54:26Z
2021-05-28T05:56:17Z,42.805,6.029,13.2999,4.60008,2470.287,2021-5-28T07:57:29Z
2021-05-28T05:59:20Z,42.805,6.029,13.2996,4.60007,2470.334,2021-5-28T08:00:32Z
2021-05-28T06:02:23Z,42.805,6.029,13.2988,4.59994,2470.31,2021-5-28T08:03:35Z
2021-05-28T06:05:26Z,42.805,6.029,13.2989,4.59995,2470.32,2021-5-28T08:06:38Z
2021-05-28T06:08:29Z,42.805,6.029,13.2990,4.59993,2470.32,2021-5-28T08:09:41Z
2021-05-28T06:11:32Z,42.805,6.029,13.2990,4.59994,2470.297,2021-5-28T08:12:44Z
2021-05-28T06:14:35Z,42.805,6.029,13.2990,4.59994,2470.32,2021-5-28T08:15:47Z
2021-05-28T06:17:38Z,42.805,6.029,13.2991,4.60001,2470.334,2021-5-28T08:18:50Z
2021-05-28T06:20:42Z,42.805,6.029,13.2990,4.59993,2470.343,2021-5-28T08:21:54Z
2021-05-28T06:23:45Z,42.805,6.029,13.2988,4.59994,2470.297,2021-5-28T08:24:57Z
2021-05-28T06:26:48Z,42.805,6.029,13.2986,4.59994,2470.357,2021-5-28T08:28:00Z
2021-05-28T06:29:51Z,42.805,6.029,13.2986,4.59993,2470.31,2021-5-28T08:31:03Z
2021-05-28T06:32:54Z,42.805,6.029,13.2986,4.59993,2470.343,2021-5-28T08:34:06Z
2021-05-28T06:35:57Z,42.805,6.029,13.2986,4.59992,2470.32,2021-5-28T08:37:09Z
2021-05-28T06:39:00Z,42.805,6.029,13.2988,4.59992,2470.32,2021-5-28T08:40:12Z
2021-05-28T06:42:03Z,42.805,6.029,13.2992,4.59992,2470.343,2021-5-28T08:43:15Z
2021-05-28T06:45:07Z,42.805,6.029,13.2988,4.59994,2470.357,2021-5-28T08:46:19Z
2021-05-28T06:48:10Z,42.805,6.029,13.2989,4.59994,2470.38,2021-5-28T08:49:22Z
2021-05-28T06:51:13Z,42.805,6.029,13.2988,4.59994,2470.366,2021-5-28T08:52:25Z
2021-05-28T06:54:16Z,42.805,6.029,13.2987,4.59993,2470.353,2021-5-28T08:55:28Z
2021-05-28T06:57:19Z,42.805,6.029,13.2986,4.59993,2470.334,2021-5-28T08:58:31Z
2021-05-28T07:00:22Z,42.805,6.029,13.2990,4.59992,2470.32,2021-5-28T09:01:34Z
2021-05-28T07:03:25Z,42.805,6.029,13.2988,4.59995,2470.343,2021-5-28T09:04:37Z
2021-05-28T07:06:28Z,42.805,6.029,13.2990,4.59993,2470.38,2021-5-28T09:07:40Z
2021-05-28T07:09:32Z,42.805,6.029,13.2987,4.59992,2470.32,2021-5-28T09:10:44Z
2021-05-28T07:12:35Z,42.805,6.029,13.2986,4.59994,2470.38,2021-5-28T09:13:47Z
2021-05-28T07:15:38Z,42.805,6.029,13.2990,4.59997,2470.366,2021-5-28T09:16:50Z
2021-05-28T07:18:41Z,42.805,6.029,13.2985,4.59993,2470.366,2021-5-28T09:19:53Z
2021-05-28T07:21:44Z,42.805,6.029,13.2990,4.59994,2470.32,2021-5-28T09:22:56Z
2021-05-28T07:24:47Z,42.805,6.029,13.2991,4.59994,2470.366,2021-5-28T09:25:59Z
2021-05-28T07:27:50Z,42.805,6.029,13.2984,4.59993,2470.404,2021-5-28T09:29:02Z
2021-05-28T07:30:53Z,42.805,6.029,13.2988,4.59993,2470.31,2021-5-28T09:32:05Z
2021-05-28T07:33:57Z,42.805,6.029,13.2989,4.59993,2470.366,2021-5-28T09:35:09Z
2021-05-28T07:37:00Z,42.805,6.029,13.2986,4.59994,2470.357,2021-5-28T09:38:12Z
2021-05-28T07:40:03Z,42.805,6.029,13.2985,4.59992,2470.334,2021-5-28T09:41:15Z
2021-05-28T07:43:06Z,42.805,6.029,13.2983,4.59993,2470.404,2021-5-28T09:44:18Z
2021-05-28T07:46:09Z,42.805,6.029,13.2986,4.59993,2470.357,2021-5-28T09:47:21Z
2021-05-28T07:49:12Z,42.805,6.029,13.2990,4.59993,2470.343,2021-5-28T09:50:24Z
2021-05-28T07:52:15Z,42.805,6.029,13.2988,4.59996,2470.357,2021-5-28T09:53:27Z
2021-05-28T07:55:18Z,42.805,6.029,13.2993,4.59994,2470.357,2021-5-28T09:56:30Z
2021-05-28T07:58:21Z,42.805,6.029,13.2987,4.59993,2470.39,2021-5-28T09:59:34Z
2021-05-28T08:01:25Z,42.805,6.029,13.2986,4.59993,2470.32,2021-5-28T10:02:37Z
2021-05-28T08:04:28Z,42.805,6.029,13.2990,4.59994,2470.38,2021-5-28T10:05:40Z
2021-05-28T08:07:31Z,42.805,6.029,13.2987,4.59992,2470.39,2021-5-28T10:08:43Z
2021-05-28T08:10:34Z,42.805,6.029,13.2984,4.59993,2470.38,2021-5-28T10:11:46Z
2021-05-28T08:13:37Z,42.805,6.029,13.2991,4.59996,2470.366,2021-5-28T10:14:49Z
2021-05-28T08:16:40Z,42.805,6.029,13.2985,4.59993,2470.343,2021-5-28T10:17:52Z
2021-05-28T08:19:43Z,42.805,6.029,13.2987,4.59994,2470.366,2021-5-28T10:20:55Z
2021-05-28T08:22:47Z,42.805,6.029,13.2988,4.59993,2470.334,2021-5-28T10:23:59Z
2021-05-28T08:25:50Z,42.805,6.029,13.2987,4.59994,2470.357,2021-5-28T10:27:02Z
2021-05-28T08:28:53Z,42.805,6.029,13.2983,4.59994,2470.343,2021-5-28T10:30:05Z
2021-05-28T08:31:56Z,42.805,6.029,13.2990,4.59994,2470.334,2021-5-28T10:33:08Z
2021-05-28T08:34:59Z,42.805,6.029,13.2992,4.59997,2470.297,2021-5-28T10:36:11Z
2021-05-28T08:38:02Z,42.805,6.029,13.2991,4.59994,2470.32,2021-5-28T10:39:14Z
2021-05-28T08:41:05Z,42.805,6.029,13.2987,4.59994,2470.32,2021-5-28T10:42:17Z
2021-05-28T08:44:08Z,42.805,6.029,13.2988,4.59996,2470.343,2021-5-28T10:45:20Z
2021-05-28T08:47:11Z,42.805,6.029,13.2988,4.59994,2470.334,2021-5-28T10:48:24Z
2021-05-28T08:50:15Z,42.805,6.029,13.2987,4.59994,2470.343,2021-5-28T10:51:27Z
2021-05-28T08:53:18Z,42.805,6.029,13.2989,4.59993,2470.32,2021-5-28T10:54:30Z
2021-05-28T08:56:21Z,42.805,6.029,13.2995,4.60003,2470.357,2021-5-28T10:57:33Z
2021-05-28T08:59:24Z,42.805,6.029,13.2993,4.59999,2470.343,2021-5-28T11:00:36Z
2021-05-28T09:02:27Z,42.805,6.029,13.2989,4.59997,2470.366,2021-5-28T11:03:39Z
2021-05-28T09:05:30Z,42.805,6.029,13.2990,4.59995,2470.334,2021-5-28T11:06:42Z
2021-05-28T09:08:33Z,42.805,6.029,13.2991,4.59994,2470.357,2021-5-28T11:09:45Z
2021-05-28T09:11:37Z,42.805,6.029,13.2991,4.59994,2470.273,2021-5-28T11:12:49Z
2021-05-28T09:14:40Z,42.805,6.029,13.2991,4.59993,2470.297,2021-5-28T11:15:52Z
2021-05-28T09:17:43Z,42.805,6.029,13.2986,4.59993,2470.31,2021-5-28T11:18:55Z
2021-05-28T09:20:46Z,42.805,6.029,13.2987,4.59992,2470.297,2021-5-28T11:21:58Z
2021-05-28T09:23:49Z,42.805,6.029,13.2990,4.59996,2470.357,2021-5-28T11:25:01Z
2021-05-28T09:26:52Z,42.805,6.029,13.2986,4.59992,2470.31,2021-5-28T11:28:04Z
2021-05-28T09:29:55Z,42.805,6.029,13.2988,4.59993,2470.32,2021-5-28T11:31:07Z
2021-05-28T09:32:58Z,42.805,6.029,13.2986,4.59993,2470.31,2021-5-28T11:34:10Z
2021-05-28T09:36:02Z,42.805,6.029,13.2989,4.59993,2470.297,2021-5-28T11:37:14Z
2021-05-28T09:39:05Z,42.805,6.029,13.2989,4.59992,2470.297,2021-5-28T11:40:17Z
2021-05-28T09:42:08Z,42.805,6.029,13.2984,4.59992,2470.343,2021-5-28T11:43:20Z
2021-05-28T09:45:11Z,42.805,6.029,13.2989,4.59992,2470.334,2021-5-28T11:46:23Z
2021-05-28T09:48:14Z,42.805,6.029,13.2989,4.59995,2470.273,2021-5-28T11:49:26Z
2021-05-28T09:51:17Z,42.805,6.029,13.2985,4.59993,2470.297,2021-5-28T11:52:29Z
2021-05-28T09:54:20Z,42.805,6.029,13.2991,4.59994,2470.31,2021-5-28T11:55:32Z
2021-05-28T09:57:23Z,42.805,6.029,13.2989,4.59994,2470.297,2021-5-28T11:58:36Z
2021-05-28T10:00:27Z,42.805,6.029,13.2988,4.59994,2470.32,2021-5-28T12:01:39Z
2021-05-28T10:03:30Z,42.805,6.029,13.2986,4.59992,2470.297,2021-5-28T12:04:42Z
2021-05-28T10:06:33Z,42.805,6.029,13.2990,4.59992,2470.264,2021-5-28T12:07:45Z
2021-05-28T10:09:36Z,42.805,6.029,13.2993,4.59992,2470.334,2021-5-28T12:10:48Z
2021-05-28T10:12:39Z,42.805,6.029,13.2991,4.59994,2470.297,2021-5-28T12:13:51Z
2021-05-28T10:15:42Z,42.805,6.029,13.2988,4.59991,2470.297,2021-5-28T12:16:54Z
2021-05-28T10:18:45Z,42.805,6.029,13.2990,4.59991,2470.273,2021-5-28T12:19:57Z
2021-05-28T10:21:48Z,42.805,6.029,13.2986,4.59991,2470.273,2021-5-28T12:23:01Z
2021-05-28T10:24:52Z,42.805,6.029,13.2990,4.59993,2470.31,2021-5-28T12:26:04Z
2021-05-28T10:27:55Z,42.805,6.029,13.2984,4.59994,2470.297,2021-5-28T12:29:07Z
2021-05-28T10:30:58Z,42.805,6.029,13.2986,4.59992,2470.273,2021-5-28T12:32:10Z
2021-05-28T10:34:01Z,42.805,6.029,13.2987,4.59992,2470.273,2021-5-28T12:35:13Z
2021-05-28T10:37:04Z,42.805,6.029,13.2986,4.59993,2470.25,2021-5-28T12:38:16Z
2021-05-28T10:40:07Z,42.805,6.029,13.2986,4.59993,2470.273,2021-5-28T12:41:19Z
2021-05-28T10:43:10Z,42.805,6.029,13.2988,4.59991,2470.273,2021-5-28T12:44:22Z
2021-05-28T10:46:13Z,42.805,6.029,13.2986,4.59991,2470.273,2021-5-28T12:47:26Z
2021-05-28T10:49:17Z,42.805,6.029,13.2986,4.59991,2470.297,2021-5-28T12:50:29Z
2021-05-28T10:52:20Z,42.805,6.029,13.2987,4.59991,2470.273,2021-5-28T12:53:32Z
2021-05-28T10:55:23Z,42.805,6.029,13.2991,4.59992,2470.297,2021-5-28T12:56:35Z
2021-05-28T10:58:26Z,42.805,6.029,13.2991,4.59992,2470.297,2021-5-28T12:59:38Z
2021-05-28T11:01:29Z,42.805,6.029,13.2990,4.59992,2470.25,2021-5-28T13:02:41Z
2021-05-28T11:04:32Z,42.805,6.029,13.2985,4.59994,2470.287,2021-5-28T13:05:44Z
2021-05-28T11:07:35Z,42.805,6.029,13.2990,4.59992,2470.273,2021-5-28T13:08:47Z
2021-05-28T11:10:38Z,42.805,6.029,13.2986,4.59992,2470.25,2021-5-28T13:11:51Z
2021-05-28T11:13:42Z,42.805,6.029,13.2989,4.59991,2470.25,2021-5-28T13:14:54Z
2021-05-28T11:16:45Z,42.805,6.029,13.2988,4.59992,2470.24,2021-5-28T13:17:57Z
2021-05-28T11:19:48Z,42.805,6.029,13.2986,4.59993,2470.25,2021-5-28T13:21:00Z
2021-05-28T11:22:51Z,42.805,6.029,13.2983,4.59994,2470.25,2021-5-28T13:24:03Z
2021-05-28T11:25:54Z,42.805,6.029,13.2983,4.59991,2470.264,2021-5-28T13:27:06Z
2021-05-28T11:28:57Z,42.805,6.029,13.2986,4.59992,2470.227,2021-5-28T13:30:09Z
2021-05-28T11:32:00Z,42.805,6.029,13.2990,4.59992,2470.273,2021-5-28T13:33:12Z
2021-05-28T11:35:04Z,42.805,6.029,13.2987,4.59992,2470.227,2021-5-28T13:36:16Z
2021-05-28T11:38:07Z,42.805,6.029,13.2982,4.59991,2470.264,2021-5-28T13:39:19Z
2021-05-28T11:41:10Z,42.805,6.029,13.2988,4.59991,2470.217,2021-5-28T13:42:22Z
2021-05-28T11:44:13Z,42.805,6.029,13.2985,4.59993,2470.227,2021-5-28T13:45:25Z
2021-05-28T11:47:16Z,42.805,6.029,13.2987,4.59992,2470.264,2021-5-28T13:48:28Z
2021-05-28T11:50:19Z,42.805,6.029,13.2988,4.59992,2470.24,2021-5-28T13:51:31Z
2021-05-28T11:53:22Z,42.805,6.029,13.2986,4.59993,2470.217,2021-5-28T13:54:34Z
2021-05-28T11:56:25Z,42.805,6.029,13.2989,4.59993,2470.203,2021-5-28T13:57:38Z
2021-05-28T11:59:29Z,42.805,6.029,13.2989,4.59991,2470.227,2021-5-28T14:00:41Z
2021-05-28T12:02:32Z,42.805,6.029,13.2988,4.59992,2470.203,2021-5-28T14:03:44Z
2021-05-28T12:05:35Z,42.805,6.029,13.2988,4.59991,2470.217,2021-5-28T14:06:47Z
2021-05-28T12:08:38Z,42.805,6.029,13.2989,4.59991,2470.227,2021-5-28T14:09:50Z
2021-05-28T12:11:41Z,42.805,6.029,13.2985,4.59991,2470.264,2021-5-28T14:12:53Z
2021-05-28T12:14:44Z,42.805,6.029,13.2983,4.59991,2470.217,2021-5-28T14:15:56Z
2021-05-28T12:17:47Z,42.805,6.029,13.2985,4.59992,2470.217,2021-5-28T14:18:59Z
2021-05-28T12:20:50Z,42.805,6.029,13.2986,4.59993,2470.227,2021-5-28T14:22:03Z
2021-05-28T12:23:54Z,42.805,6.029,13.2988,4.59994,2470.203,2021-5-28T14:25:06Z
2021-05-28T12:26:57Z,42.805,6.029,13.2989,4.59992,2470.217,2021-5-28T14:28:09Z
2021-05-28T12:30:00Z,42.805,6.029,13.2983,4.59991,2470.203,2021-5-28T14:31:12Z
2021-05-28T12:33:03Z,42.805,6.029,13.2986,4.59991,2470.203,2021-5-28T14:34:15Z
2021-05-28T12:36:06Z,42.805,6.029,13.2986,4.59993,2470.166,2021-5-28T14:37:18Z
2021-05-28T12:39:09Z,42.805,6.029,13.2984,4.59994,2470.203,2021-5-28T14:40:21Z
2021-05-28T12:42:12Z,42.805,6.029,13.2989,4.59993,2470.194,2021-5-28T14:43:24Z
2021-05-28T12:45:16Z,42.805,6.029,13.2986,4.59993,2470.203,2021-5-28T14:46:28Z
2021-05-28T12:48:19Z,42.805,6.029,13.2987,4.59992,2470.203,2021-5-28T14:49:31Z
2021-05-28T12:51:22Z,42.805,6.029,13.2988,4.59991,2470.171,2021-5-28T14:52:34Z
2021-05-28T12:54:25Z,42.805,6.029,13.2985,4.59991,2470.203,2021-5-28T14:55:37Z
2021-05-28T12:57:28Z,42.805,6.029,13.2987,4.59992,2470.217,2021-5-28T14:58:40Z
2021-05-28T13:00:31Z,42.805,6.029,13.2988,4.59991,2470.18,2021-5-28T15:01:43Z
2021-05-28T13:03:34Z,42.805,6.029,13.2987,4.59992,2470.166,2021-5-28T15:04:46Z
2021-05-28T13:06:37Z,42.805,6.029,13.2986,4.59994,2470.203,2021-5-28T15:07:49Z
2021-05-28T13:09:41Z,42.805,6.029,13.2986,4.59993,2470.156,2021-5-28T15:10:53Z
2021-05-28T13:12:44Z,42.805,6.029,13.2982,4.59992,2470.217,2021-5-28T15:13:56Z
2021-05-28T13:15:47Z,42.805,6.029,13.2984,4.59991,2470.156,2021-5-28T15:16:59Z
2021-05-28T13:18:50Z,42.805,6.029,13.2987,4.59992,2470.217,2021-5-28T15:20:02Z
2021-05-28T13:21:53Z,42.805,6.029,13.2994,4.60000,2470.18,2021-5-28T15:23:05Z
2021-05-28T13:24:56Z,42.805,6.029,13.2983,4.59992,2470.194,2021-5-28T15:26:08Z
2021-05-28T13:27:59Z,42.805,6.029,13.2991,4.59995,2470.203,2021-5-28T15:29:11Z
2021-05-28T13:31:02Z,42.805,6.029,13.2988,4.59991,2470.203,2021-5-28T15:32:15Z
2021-05-28T13:34:06Z,42.805,6.029,13.2986,4.59991,2470.203,2021-5-28T15:35:18Z
2021-05-28T13:37:09Z,42.805,6.029,13.2995,4.59992,2470.194,2021-5-28T15:38:21Z
2021-05-28T13:40:12Z,42.805,6.029,13.2989,4.59991,2470.156,2021-5-28T15:41:24Z
2021-05-28T13:43:15Z,42.805,6.029,13.2987,4.59993,2470.156,2021-5-28T15:44:27Z
2021-05-28T13:46:18Z,42.805,6.029,13.2990,4.59991,2470.203,2021-5-28T15:47:30Z
2021-05-28T13:49:21Z,42.805,6.029,13.2986,4.59993,2470.156,2021-5-28T15:50:33Z
2021-05-28T13:52:24Z,42.805,6.029,13.2988,4.59992,2470.147,2021-5-28T15:53:36Z
2021-05-28T13:55:27Z,42.805,6.029,13.2990,4.59993,2470.147,2021-5-28T15:56:40Z
2021-05-28T13:58:31Z,42.805,6.029,13.2986,4.59994,2470.194,2021-5-28T15:59:43Z
2021-05-28T14:01:34Z,42.805,6.029,13.2991,4.59995,2470.133,2021-5-28T16:02:46Z
2021-05-28T14:04:37Z,42.805,6.029,13.2987,4.59992,2470.147,2021-5-28T16:05:49Z
2021-05-28T14:07:40Z,42.805,6.029,13.2991,4.59991,2470.156,2021-5-28T16:08:52Z
2021-05-28T14:10:43Z,42.805,6.029,13.2981,4.59994,2470.133,2021-5-28T16:11:55Z
2021-05-28T14:13:46Z,42.805,6.029,13.2986,4.59994,2470.156,2021-5-28T16:14:58Z
2021-05-28T14:16:49Z,42.805,6.029,13.2984,4.59995,2470.11,2021-5-28T16:18:01Z
2021-05-28T14:19:52Z,42.805,6.029,13.2991,4.60001,2470.11,2021-5-28T16:21:05Z
2021-05-28T14:22:56Z,42.805,6.029,13.2994,4.59993,2470.18,2021-5-28T16:24:08Z
2021-05-28T14:25:59Z,42.805,6.029,13.2991,4.59992,2470.18,2021-5-28T16:27:11Z
2021-05-28T14:29:02Z,42.805,6.029,13.2986,4.59993,2470.18,2021-5-28T16:30:14Z
2021-05-28T14:32:05Z,42.805,6.029,13.2986,4.59992,2470.171,2021-5-28T16:33:17Z
2021-05-28T14:35:08Z,42.805,6.029,13.2998,4.60004,2470.194,2021-5-28T16:36:20Z
2021-05-28T14:38:11Z,42.805,6.029,13.2997,4.60010,2470.171,2021-5-28T16:39:23Z
2021-05-28T14:41:14Z,42.805,6.029,13.2996,4.59992,2470.147,2021-5-28T16:42:26Z
2021-05-28T14:44:18Z,42.805,6.029,13.2987,4.59992,2470.133,2021-5-28T16:45:30Z
2021-05-28T14:47:21Z,42.805,6.029,13.2982,4.59991,2470.124,2021-5-28T16:48:33Z
2021-05-28T14:50:24Z,42.805,6.029,13.2993,4.59992,2470.147,2021-5-28T16:51:36Z
2021-05-28T14:53:27Z,42.805,6.029,13.2990,4.59991,2470.171,2021-5-28T16:54:39Z
2021-05-28T14:56:30Z,42.805,6.029,13.2990,4.59992,2470.194,2021-5-28T16:57:42Z
2021-05-28T14:59:33Z,42.805,6.029,13.2988,4.59993,2470.156,2021-5-28T17:00:45Z
2021-05-28T15:02:36Z,42.805,6.029,13.3003,4.60003,2470.133,2021-5-28T17:03:48Z
2021-05-28T15:05:39Z,42.805,6.029,13.2997,4.60009,2470.133,2021-5-28T17:06:52Z
2021-05-28T15:08:43Z,42.805,6.029,13.3002,4.60011,2470.171,2021-5-28T17:09:55Z
2021-05-28T15:11:46Z,42.805,6.029,13.2998,4.59999,2470.124,2021-5-28T17:12:58Z